Data supplied by UK-AIR on 11/5/2022
All Data GMT hour ending 
Status: R =Ratified P=Provisional,P*=As supplied
,,Chatham Roadside,,,,,,,,,,,,,,,,,,,,,,,
Date,time,"PM<sub>10</sub> particulate matter (Hourly measured)",status,unit,"Nitric oxide",status,unit,"Nitrogen dioxide",status,unit,"Nitrogen oxides as nitrogen dioxide",status,unit,"PM<sub>2.5</sub> particulate matter (Hourly measured)",status,unit
 
01-01-2021,01:00,49.276,R,ugm-3 (Ref.eq),3.96621,R,ugm-3,16.58269,R,ugm-3,22.66413,R,ugm-3,41.000,R,ugm-3 (BAM)
01-01-2021,02:00,23.189,R,ugm-3 (Ref.eq),3.21999,R,ugm-3,14.00478,R,ugm-3,18.94203,R,ugm-3,18.000,R,ugm-3 (BAM)
01-01-2021,03:00,32.851,R,ugm-3 (Ref.eq),2.60666,R,ugm-3,15.35208,R,ugm-3,19.34890,R,ugm-3,35.000,R,ugm-3 (BAM)
01-01-2021,04:00,25.121,R,ugm-3 (Ref.eq),1.87066,R,ugm-3,13.49688,R,ugm-3,16.36519,R,ugm-3,23.000,R,ugm-3 (BAM)
01-01-2021,05:00,23.189,R,ugm-3 (Ref.eq),2.33066,R,ugm-3,12.47511,R,ugm-3,16.04874,R,ugm-3,20.000,R,ugm-3 (BAM)
01-01-2021,06:00,17.392,R,ugm-3 (Ref.eq),1.47200,R,ugm-3,13.06839,R,ugm-3,15.32541,R,ugm-3,16.000,R,ugm-3 (BAM)
01-01-2021,07:00,23.189,R,ugm-3 (Ref.eq),4.63065,R,ugm-3,17.31193,R,ugm-3,24.41216,R,ugm-3,19.000,R,ugm-3 (BAM)
01-01-2021,08:00,24.155,R,ugm-3 (Ref.eq),8.09598,R,ugm-3,25.28957,R,ugm-3,37.70323,R,ugm-3,24.000,R,ugm-3 (BAM)
01-01-2021,09:00,29.952,R,ugm-3 (Ref.eq),7.81998,R,ugm-3,23.67842,R,ugm-3,35.66888,R,ugm-3,25.000,R,ugm-3 (BAM)
01-01-2021,10:00,28.020,R,ugm-3 (Ref.eq),10.11997,R,ugm-3,23.31635,R,ugm-3,38.83342,R,ugm-3,26.000,R,ugm-3 (BAM)
01-01-2021,11:00,22.223,R,ugm-3 (Ref.eq),14.38263,R,ugm-3,23.47111,R,ugm-3,45.52417,R,ugm-3,21.000,R,ugm-3 (BAM)
01-01-2021,12:00,21.256,R,ugm-3 (Ref.eq),17.44928,R,ugm-3,25.50492,R,ugm-3,52.26011,R,ugm-3,19.000,R,ugm-3 (BAM)
01-01-2021,13:00,23.189,R,ugm-3 (Ref.eq),27.23192,R,ugm-3,32.70207,R,ugm-3,74.45710,R,ugm-3,21.000,R,ugm-3 (BAM)
01-01-2021,14:00,25.121,R,ugm-3 (Ref.eq),29.16392,R,ugm-3,33.80841,R,ugm-3,78.52580,R,ugm-3,25.000,R,ugm-3 (BAM)
01-01-2021,15:00,37.682,R,ugm-3 (Ref.eq),33.45724,R,ugm-3,37.75881,R,ugm-3,89.05919,R,ugm-3,32.000,R,ugm-3 (BAM)
01-01-2021,16:00,33.817,R,ugm-3 (Ref.eq),30.29858,R,ugm-3,38.21687,R,ugm-3,84.67404,R,ugm-3,31.000,R,ugm-3 (BAM)
01-01-2021,17:00,46.378,R,ugm-3 (Ref.eq),30.88125,R,ugm-3,38.81531,R,ugm-3,86.16590,R,ugm-3,38.000,R,ugm-3 (BAM)
01-01-2021,18:00,37.682,R,ugm-3 (Ref.eq),22.20261,R,ugm-3,35.66677,R,ugm-3,69.71029,R,ugm-3,34.000,R,ugm-3 (BAM)
01-01-2021,19:00,41.547,R,ugm-3 (Ref.eq),23.98127,R,ugm-3,35.42595,R,ugm-3,72.19671,R,ugm-3,33.000,R,ugm-3 (BAM)
01-01-2021,20:00,39.614,R,ugm-3 (Ref.eq),21.89594,R,ugm-3,35.82053,R,ugm-3,69.39384,R,ugm-3,31.000,R,ugm-3 (BAM)
01-01-2021,21:00,31.885,R,ugm-3 (Ref.eq),20.82261,R,ugm-3,36.01964,R,ugm-3,67.94719,R,ugm-3,21.000,R,ugm-3 (BAM)
01-01-2021,22:00,29.952,R,ugm-3 (Ref.eq),13.46263,R,ugm-3,30.89438,R,ugm-3,51.53679,R,ugm-3,17.000,R,ugm-3 (BAM)
01-01-2021,23:00,17.392,R,ugm-3 (Ref.eq),5.76532,R,ugm-3,17.19961,R,ugm-3,26.03964,R,ugm-3,14.000,R,ugm-3 (BAM)
01-01-2021,24:00,17.392,R,ugm-3 (Ref.eq),3.15866,R,ugm-3,13.10425,R,ugm-3,17.94746,R,ugm-3,15.000,R,ugm-3 (BAM)
02-01-2021,01:00,14.493,R,ugm-3 (Ref.eq),3.14604,R,ugm-3,11.79651,R,ugm-3,16.62038,R,ugm-3,11.000,R,ugm-3 (BAM)
02-01-2021,02:00,13.527,R,ugm-3 (Ref.eq),1.93053,R,ugm-3,7.74379,R,ugm-3,10.70388,R,ugm-3,10.000,R,ugm-3 (BAM)
02-01-2021,03:00,12.561,R,ugm-3 (Ref.eq),1.62409,R,ugm-3,7.89749,R,ugm-3,10.38774,R,ugm-3,14.000,R,ugm-3 (BAM)
02-01-2021,04:00,16.425,R,ugm-3 (Ref.eq),1.89988,R,ugm-3,8.33274,R,ugm-3,11.24585,R,ugm-3,11.000,R,ugm-3 (BAM)
02-01-2021,05:00,15.459,R,ugm-3 (Ref.eq),1.44023,R,ugm-3,7.59228,R,ugm-3,9.80060,R,ugm-3,10.000,R,ugm-3 (BAM)
02-01-2021,06:00,11.594,R,ugm-3 (Ref.eq),2.17567,R,ugm-3,8.00020,R,ugm-3,11.33618,R,ugm-3,10.000,R,ugm-3 (BAM)
02-01-2021,07:00,13.527,R,ugm-3 (Ref.eq),3.37076,R,ugm-3,10.86482,R,ugm-3,16.03324,R,ugm-3,10.000,R,ugm-3 (BAM)
02-01-2021,08:00,12.561,R,ugm-3 (Ref.eq),10.08164,R,ugm-3,16.24688,R,ugm-3,31.70517,R,ugm-3,9.000,R,ugm-3 (BAM)
02-01-2021,09:00,10.628,R,ugm-3 (Ref.eq),5.76094,R,ugm-3,15.32946,R,ugm-3,24.16278,R,ugm-3,11.000,R,ugm-3 (BAM)
02-01-2021,10:00,12.561,R,ugm-3 (Ref.eq),5.11743,R,ugm-3,15.63870,R,ugm-3,23.48531,R,ugm-3,10.000,R,ugm-3 (BAM)
02-01-2021,11:00,9.662,R,ugm-3 (Ref.eq),11.70573,R,ugm-3,19.08600,R,ugm-3,37.03454,R,ugm-3,5.000,R,ugm-3 (BAM)
02-01-2021,12:00,7.730,R,ugm-3 (Ref.eq),9.98971,R,ugm-3,18.64604,R,ugm-3,33.96338,R,ugm-3,6.000,R,ugm-3 (BAM)
02-01-2021,13:00,9.662,R,ugm-3 (Ref.eq),12.53310,R,ugm-3,20.97887,R,ugm-3,40.19602,R,ugm-3,6.000,R,ugm-3 (BAM)
02-01-2021,14:00,9.662,R,ugm-3 (Ref.eq),13.63626,R,ugm-3,22.99083,R,ugm-3,43.89947,R,ugm-3,5.000,R,ugm-3 (BAM)
02-01-2021,15:00,11.594,R,ugm-3 (Ref.eq),19.06012,R,ugm-3,28.31391,R,ugm-3,57.53902,R,ugm-3,6.000,R,ugm-3 (BAM)
02-01-2021,16:00,8.696,R,ugm-3 (Ref.eq),14.15720,R,ugm-3,27.43111,R,ugm-3,49.13851,R,ugm-3,7.000,R,ugm-3 (BAM)
02-01-2021,17:00,13.527,R,ugm-3 (Ref.eq),15.26035,R,ugm-3,34.81760,R,ugm-3,58.21648,R,ugm-3,8.000,R,ugm-3 (BAM)
02-01-2021,18:00,19.324,R,ugm-3 (Ref.eq),15.35228,R,ugm-3,32.64426,R,ugm-3,56.18410,R,ugm-3,13.000,R,ugm-3 (BAM)
02-01-2021,19:00,16.425,R,ugm-3 (Ref.eq),8.79462,R,ugm-3,25.31104,R,ugm-3,38.79594,R,ugm-3,17.000,R,ugm-3 (BAM)
02-01-2021,20:00,12.561,R,ugm-3 (Ref.eq),10.60258,R,ugm-3,28.09406,R,ugm-3,44.35111,R,ugm-3,14.000,R,ugm-3 (BAM)
02-01-2021,21:00,16.425,R,ugm-3 (Ref.eq),11.58316,R,ugm-3,30.56496,R,ugm-3,48.32555,R,ugm-3,13.000,R,ugm-3 (BAM)
02-01-2021,22:00,19.324,R,ugm-3 (Ref.eq),13.82012,R,ugm-3,32.32887,R,ugm-3,53.51942,R,ugm-3,12.000,R,ugm-3 (BAM)
02-01-2021,23:00,24.155,R,ugm-3 (Ref.eq),8.18176,R,ugm-3,29.05092,R,ugm-3,41.59611,R,ugm-3,15.000,R,ugm-3 (BAM)
02-01-2021,24:00,22.223,R,ugm-3 (Ref.eq),4.10620,R,ugm-3,19.58293,R,ugm-3,25.87901,R,ugm-3,18.000,R,ugm-3 (BAM)
03-01-2021,01:00,22.223,R,ugm-3 (Ref.eq),2.08216,R,ugm-3,10.04273,R,ugm-3,13.23532,R,ugm-3,13.000,R,ugm-3 (BAM)
03-01-2021,02:00,9.662,R,ugm-3 (Ref.eq),2.57208,R,ugm-3,8.78016,R,ugm-3,12.72396,R,ugm-3,11.000,R,ugm-3 (BAM)
03-01-2021,03:00,14.493,R,ugm-3 (Ref.eq),1.31666,R,ugm-3,7.45644,R,ugm-3,9.47529,R,ugm-3,10.000,R,ugm-3 (BAM)
03-01-2021,04:00,12.561,R,ugm-3 (Ref.eq),1.28604,R,ugm-3,7.50339,R,ugm-3,9.47529,R,ugm-3,9.000,R,ugm-3 (BAM)
03-01-2021,05:00,11.594,R,ugm-3 (Ref.eq),1.62286,R,ugm-3,11.13802,R,ugm-3,13.62637,R,ugm-3,7.000,R,ugm-3 (BAM)
03-01-2021,06:00,13.527,R,ugm-3 (Ref.eq),1.92906,R,ugm-3,11.30021,R,ugm-3,14.25806,R,ugm-3,8.000,R,ugm-3 (BAM)
03-01-2021,07:00,13.527,R,ugm-3 (Ref.eq),2.54146,R,ugm-3,11.08313,R,ugm-3,14.97998,R,ugm-3,16.000,R,ugm-3 (BAM)
03-01-2021,08:00,15.459,R,ugm-3 (Ref.eq),5.84842,R,ugm-3,14.63054,R,ugm-3,23.59798,R,ugm-3,13.000,R,ugm-3 (BAM)
03-01-2021,09:00,11.594,R,ugm-3 (Ref.eq),6.39958,R,ugm-3,16.89875,R,ugm-3,26.71129,R,ugm-3,15.000,R,ugm-3 (BAM)
03-01-2021,10:00,6.763,R,ugm-3 (Ref.eq),5.35850,R,ugm-3,14.02812,R,ugm-3,22.24437,R,ugm-3,10.000,R,ugm-3 (BAM)
03-01-2021,11:00,7.730,R,ugm-3 (Ref.eq),10.53327,R,ugm-3,18.27609,R,ugm-3,34.42688,R,ugm-3,7.000,R,ugm-3 (BAM)
03-01-2021,12:00,8.696,R,ugm-3 (Ref.eq),7.96119,R,ugm-3,15.27134,R,ugm-3,27.47834,R,ugm-3,8.000,R,ugm-3 (BAM)
03-01-2021,13:00,12.561,R,ugm-3 (Ref.eq),14.82007,R,ugm-3,20.41134,R,ugm-3,43.13513,R,ugm-3,9.000,R,ugm-3 (BAM)
03-01-2021,14:00,11.594,R,ugm-3 (Ref.eq),12.95225,R,ugm-3,20.70342,R,ugm-3,40.56326,R,ugm-3,8.000,R,ugm-3 (BAM)
03-01-2021,15:00,6.763,R,ugm-3 (Ref.eq),4.89920,R,ugm-3,13.33364,R,ugm-3,20.84564,R,ugm-3,6.000,R,ugm-3 (BAM)
03-01-2021,16:00,7.730,R,ugm-3 (Ref.eq),5.63408,R,ugm-3,14.19214,R,ugm-3,22.83093,R,ugm-3,4.000,R,ugm-3 (BAM)
03-01-2021,17:00,12.561,R,ugm-3 (Ref.eq),9.92087,R,ugm-3,24.26858,R,ugm-3,39.48037,R,ugm-3,9.000,R,ugm-3 (BAM)
03-01-2021,18:00,14.493,R,ugm-3 (Ref.eq),4.71548,R,ugm-3,17.22497,R,ugm-3,24.45527,R,ugm-3,15.000,R,ugm-3 (BAM)
03-01-2021,19:00,14.493,R,ugm-3 (Ref.eq),4.28680,R,ugm-3,15.08481,R,ugm-3,21.65780,R,ugm-3,15.000,R,ugm-3 (BAM)
03-01-2021,20:00,25.121,R,ugm-3 (Ref.eq),3.64378,R,ugm-3,14.49154,R,ugm-3,20.07859,R,ugm-3,32.000,R,ugm-3 (BAM)
03-01-2021,21:00,14.493,R,ugm-3 (Ref.eq),2.84766,R,ugm-3,12.55381,R,ugm-3,16.92016,R,ugm-3,12.000,R,ugm-3 (BAM)
03-01-2021,22:00,14.493,R,ugm-3 (Ref.eq),1.86782,R,ugm-3,9.90513,R,ugm-3,12.76908,R,ugm-3,12.000,R,ugm-3 (BAM)
03-01-2021,23:00,17.392,R,ugm-3 (Ref.eq),2.54146,R,ugm-3,7.06741,R,ugm-3,10.96426,R,ugm-3,13.000,R,ugm-3 (BAM)
03-01-2021,24:00,15.459,R,ugm-3 (Ref.eq),1.28604,R,ugm-3,4.39008,R,ugm-3,6.36198,R,ugm-3,9.000,R,ugm-3 (BAM)
04-01-2021,01:00,10.628,R,ugm-3 (Ref.eq),0.65273,R,ugm-3,4.10786,R,ugm-3,5.10870,R,ugm-3,5.000,R,ugm-3 (BAM)
04-01-2021,02:00,9.662,R,ugm-3 (Ref.eq),0.77512,R,ugm-3,3.49949,R,ugm-3,4.68799,R,ugm-3,5.000,R,ugm-3 (BAM)
04-01-2021,03:00,8.696,R,ugm-3 (Ref.eq),0.61193,R,ugm-3,3.83985,R,ugm-3,4.77814,R,ugm-3,6.000,R,ugm-3 (BAM)
04-01-2021,04:00,12.561,R,ugm-3 (Ref.eq),0.67313,R,ugm-3,3.34033,R,ugm-3,4.37245,R,ugm-3,6.000,R,ugm-3 (BAM)
04-01-2021,05:00,11.594,R,ugm-3 (Ref.eq),0.76492,R,ugm-3,4.59697,R,ugm-3,5.76983,R,ugm-3,6.000,R,ugm-3 (BAM)
04-01-2021,06:00,9.662,R,ugm-3 (Ref.eq),1.80520,R,ugm-3,5.34588,R,ugm-3,8.11382,R,ugm-3,7.000,R,ugm-3 (BAM)
04-01-2021,07:00,7.730,R,ugm-3 (Ref.eq),3.61041,R,ugm-3,10.37622,R,ugm-3,15.91210,R,ugm-3,5.000,R,ugm-3 (BAM)
04-01-2021,08:00,5.797,R,ugm-3 (Ref.eq),4.22234,R,ugm-3,8.80686,R,ugm-3,15.28103,R,ugm-3,7.000,R,ugm-3 (BAM)
04-01-2021,09:00,10.628,R,ugm-3 (Ref.eq),4.31413,R,ugm-3,12.31734,R,ugm-3,18.93225,R,ugm-3,7.000,R,ugm-3 (BAM)
04-01-2021,10:00,10.628,R,ugm-3 (Ref.eq),3.88578,R,ugm-3,7.97062,R,ugm-3,13.92872,R,ugm-3,4.000,R,ugm-3 (BAM)
04-01-2021,11:00,16.425,R,ugm-3 (Ref.eq),7.74096,R,ugm-3,10.98462,R,ugm-3,22.85393,R,ugm-3,5.000,R,ugm-3 (BAM)
04-01-2021,12:00,17.392,R,ugm-3 (Ref.eq),6.21113,R,ugm-3,10.71588,R,ugm-3,20.23948,R,ugm-3,6.000,R,ugm-3 (BAM)
04-01-2021,13:00,12.561,R,ugm-3 (Ref.eq),7.00664,R,ugm-3,11.29918,R,ugm-3,22.04255,R,ugm-3,5.000,R,ugm-3 (BAM)
04-01-2021,14:00,10.628,R,ugm-3 (Ref.eq),5.50740,R,ugm-3,8.45923,R,ugm-3,16.90379,R,ugm-3,5.000,R,ugm-3 (BAM)
04-01-2021,15:00,17.392,R,ugm-3 (Ref.eq),5.50740,R,ugm-3,11.11876,R,ugm-3,19.56332,R,ugm-3,5.000,R,ugm-3 (BAM)
04-01-2021,16:00,17.392,R,ugm-3 (Ref.eq),4.49771,R,ugm-3,11.40478,R,ugm-3,18.30117,R,ugm-3,9.000,R,ugm-3 (BAM)
04-01-2021,17:00,8.696,R,ugm-3 (Ref.eq),4.37533,R,ugm-3,8.66245,R,ugm-3,15.37118,R,ugm-3,9.000,R,ugm-3 (BAM)
04-01-2021,18:00,10.628,R,ugm-3 (Ref.eq),5.72158,R,ugm-3,12.27789,R,ugm-3,21.05086,R,ugm-3,6.000,R,ugm-3 (BAM)
04-01-2021,19:00,8.696,R,ugm-3 (Ref.eq),3.82459,R,ugm-3,12.66228,R,ugm-3,18.52656,R,ugm-3,4.000,R,ugm-3 (BAM)
04-01-2021,20:00,11.594,R,ugm-3 (Ref.eq),2.69251,R,ugm-3,8.49305,R,ugm-3,12.62150,R,ugm-3,7.000,R,ugm-3 (BAM)
04-01-2021,21:00,10.628,R,ugm-3 (Ref.eq),1.98878,R,ugm-3,8.30992,R,ugm-3,11.35935,R,ugm-3,6.000,R,ugm-3 (BAM)
04-01-2021,22:00,6.763,R,ugm-3 (Ref.eq),2.38654,R,ugm-3,6.21250,R,ugm-3,9.87181,R,ugm-3,6.000,R,ugm-3 (BAM)
04-01-2021,23:00,10.628,R,ugm-3 (Ref.eq),1.37685,R,ugm-3,7.08452,R,ugm-3,9.19566,R,ugm-3,7.000,R,ugm-3 (BAM)
04-01-2021,24:00,12.561,R,ugm-3 (Ref.eq),2.41714,R,ugm-3,6.03036,R,ugm-3,9.73659,R,ugm-3,5.000,R,ugm-3 (BAM)
05-01-2021,01:00,11.594,R,ugm-3 (Ref.eq),1.05988,R,ugm-3,5.70027,R,ugm-3,7.32539,R,ugm-3,3.000,R,ugm-3 (BAM)
05-01-2021,02:00,10.628,R,ugm-3 (Ref.eq),0.88663,R,ugm-3,3.68423,R,ugm-3,5.04371,R,ugm-3,2.000,R,ugm-3 (BAM)
05-01-2021,03:00,9.662,R,ugm-3 (Ref.eq),1.25351,R,ugm-3,4.33759,R,ugm-3,6.25961,R,ugm-3,2.000,R,ugm-3 (BAM)
05-01-2021,04:00,9.662,R,ugm-3 (Ref.eq),1.03950,R,ugm-3,3.26971,R,ugm-3,4.86358,R,ugm-3,2.000,R,ugm-3 (BAM)
05-01-2021,05:00,7.730,R,ugm-3 (Ref.eq),0.94778,R,ugm-3,3.00505,R,ugm-3,4.45828,R,ugm-3,3.000,R,ugm-3 (BAM)
05-01-2021,06:00,8.696,R,ugm-3 (Ref.eq),1.86498,R,ugm-3,7.27287,R,ugm-3,10.13246,R,ugm-3,5.000,R,ugm-3 (BAM)
05-01-2021,07:00,14.493,R,ugm-3 (Ref.eq),4.34142,R,ugm-3,14.01346,R,ugm-3,20.67021,R,ugm-3,6.000,R,ugm-3 (BAM)
05-01-2021,08:00,11.594,R,ugm-3 (Ref.eq),6.11468,R,ugm-3,13.05080,R,ugm-3,22.42650,R,ugm-3,6.000,R,ugm-3 (BAM)
05-01-2021,09:00,11.594,R,ugm-3 (Ref.eq),5.90066,R,ugm-3,10.49683,R,ugm-3,19.54438,R,ugm-3,7.000,R,ugm-3 (BAM)
05-01-2021,10:00,10.628,R,ugm-3 (Ref.eq),6.17582,R,ugm-3,11.15572,R,ugm-3,20.62518,R,ugm-3,5.000,R,ugm-3 (BAM)
05-01-2021,11:00,6.763,R,ugm-3 (Ref.eq),5.50321,R,ugm-3,11.51155,R,ugm-3,19.94968,R,ugm-3,6.000,R,ugm-3 (BAM)
05-01-2021,12:00,4.831,R,ugm-3 (Ref.eq),6.17582,R,ugm-3,13.00207,R,ugm-3,22.47154,R,ugm-3,5.000,R,ugm-3 (BAM)
05-01-2021,13:00,6.763,R,ugm-3 (Ref.eq),5.56435,R,ugm-3,11.28269,R,ugm-3,19.81458,R,ugm-3,3.000,R,ugm-3 (BAM)
05-01-2021,14:00,3.865,R,ugm-3 (Ref.eq),4.98346,R,ugm-3,9.87669,R,ugm-3,17.51789,R,ugm-3,4.000,R,ugm-3 (BAM)
05-01-2021,15:00,4.831,R,ugm-3 (Ref.eq),5.77837,R,ugm-3,10.81944,R,ugm-3,19.67948,R,ugm-3,5.000,R,ugm-3 (BAM)
05-01-2021,16:00,7.730,R,ugm-3 (Ref.eq),8.22424,R,ugm-3,13.68903,R,ugm-3,26.29935,R,ugm-3,4.000,R,ugm-3 (BAM)
05-01-2021,17:00,6.763,R,ugm-3 (Ref.eq),5.68665,R,ugm-3,13.66206,R,ugm-3,22.38147,R,ugm-3,5.000,R,ugm-3 (BAM)
05-01-2021,18:00,5.797,R,ugm-3 (Ref.eq),5.41149,R,ugm-3,11.02172,R,ugm-3,19.31921,R,ugm-3,7.000,R,ugm-3 (BAM)
05-01-2021,19:00,5.797,R,ugm-3 (Ref.eq),3.88282,R,ugm-3,10.34842,R,ugm-3,16.30200,R,ugm-3,5.000,R,ugm-3 (BAM)
05-01-2021,20:00,5.797,R,ugm-3 (Ref.eq),4.92231,R,ugm-3,12.44727,R,ugm-3,19.99471,R,ugm-3,5.000,R,ugm-3 (BAM)
05-01-2021,21:00,9.662,R,ugm-3 (Ref.eq),6.84844,R,ugm-3,11.43035,R,ugm-3,21.93114,R,ugm-3,6.000,R,ugm-3 (BAM)
05-01-2021,22:00,9.662,R,ugm-3 (Ref.eq),2.81275,R,ugm-3,8.34149,R,ugm-3,12.65431,R,ugm-3,6.000,R,ugm-3 (BAM)
05-01-2021,23:00,6.763,R,ugm-3 (Ref.eq),2.23186,R,ugm-3,6.25999,R,ugm-3,9.68213,R,ugm-3,7.000,R,ugm-3 (BAM)
05-01-2021,24:00,11.594,R,ugm-3 (Ref.eq),2.62931,R,ugm-3,8.44263,R,ugm-3,12.47418,R,ugm-3,6.000,R,ugm-3 (BAM)
06-01-2021,01:00,6.763,R,ugm-3 (Ref.eq),1.83301,R,ugm-3,5.64746,R,ugm-3,8.45802,R,ugm-3,2.000,R,ugm-3 (BAM)
06-01-2021,02:00,6.763,R,ugm-3 (Ref.eq),1.00815,R,ugm-3,4.48278,R,ugm-3,6.02859,R,ugm-3,2.000,R,ugm-3 (BAM)
06-01-2021,03:00,12.561,R,ugm-3 (Ref.eq),0.82485,R,ugm-3,4.98879,R,ugm-3,6.25354,R,ugm-3,,,
06-01-2021,04:00,8.696,R,ugm-3 (Ref.eq),1.68025,R,ugm-3,5.25182,R,ugm-3,7.82817,R,ugm-3,,,
06-01-2021,05:00,12.561,R,ugm-3 (Ref.eq),1.55805,R,ugm-3,5.97906,R,ugm-3,8.36805,R,ugm-3,,,
06-01-2021,06:00,11.594,R,ugm-3 (Ref.eq),3.11611,R,ugm-3,11.14831,R,ugm-3,15.92628,R,ugm-3,,,
06-01-2021,07:00,7.730,R,ugm-3 (Ref.eq),15.70274,R,ugm-3,26.04110,R,ugm-3,50.11829,R,ugm-3,,,
06-01-2021,08:00,14.493,R,ugm-3 (Ref.eq),41.18150,R,ugm-3,41.77141,R,ugm-3,104.91550,R,ugm-3,,,
06-01-2021,09:00,24.155,R,ugm-3 (Ref.eq),24.04291,R,ugm-3,32.37355,R,ugm-3,69.23883,R,ugm-3,,,
06-01-2021,10:00,17.392,R,ugm-3 (Ref.eq),16.68034,R,ugm-3,28.81613,R,ugm-3,54.39230,R,ugm-3,,,
06-01-2021,11:00,18.358,R,ugm-3 (Ref.eq),8.98172,R,ugm-3,16.64112,R,ugm-3,30.41290,R,ugm-3,,,
06-01-2021,12:00,15.459,R,ugm-3 (Ref.eq),8.85952,R,ugm-3,16.19863,R,ugm-3,29.78304,R,ugm-3,,,
06-01-2021,13:00,14.493,R,ugm-3 (Ref.eq),7.57642,R,ugm-3,11.46260,R,ugm-3,23.07961,R,ugm-3,,,
06-01-2021,14:00,10.628,R,ugm-3 (Ref.eq),5.37681,R,ugm-3,12.36086,R,ugm-3,20.60519,R,ugm-3,,,
06-01-2021,15:00,18.358,R,ugm-3 (Ref.eq),9.89822,R,ugm-3,13.66120,R,ugm-3,28.83826,R,ugm-3,,,
06-01-2021,16:00,16.425,R,ugm-3 (Ref.eq),15.27504,R,ugm-3,19.40860,R,ugm-3,42.83000,R,ugm-3,,,
06-01-2021,17:00,23.189,R,ugm-3 (Ref.eq),21.84330,R,ugm-3,33.40678,R,ugm-3,66.89937,R,ugm-3,11.000,R,ugm-3 (BAM)
06-01-2021,18:00,23.189,R,ugm-3 (Ref.eq),27.73947,R,ugm-3,34.75869,R,ugm-3,77.29195,R,ugm-3,10.000,R,ugm-3 (BAM)
06-01-2021,19:00,20.290,R,ugm-3 (Ref.eq),19.12435,R,ugm-3,33.70669,R,ugm-3,63.03028,R,ugm-3,11.000,R,ugm-3 (BAM)
06-01-2021,20:00,22.223,R,ugm-3 (Ref.eq),14.60293,R,ugm-3,33.21616,R,ugm-3,55.60701,R,ugm-3,12.000,R,ugm-3 (BAM)
06-01-2021,21:00,26.087,R,ugm-3 (Ref.eq),10.32593,R,ugm-3,27.94191,R,ugm-3,43.77478,R,ugm-3,17.000,R,ugm-3 (BAM)
06-01-2021,22:00,16.425,R,ugm-3 (Ref.eq),8.24852,R,ugm-3,24.96366,R,ugm-3,37.61122,R,ugm-3,12.000,R,ugm-3 (BAM)
06-01-2021,23:00,14.493,R,ugm-3 (Ref.eq),8.52347,R,ugm-3,25.30690,R,ugm-3,38.37604,R,ugm-3,12.000,R,ugm-3 (BAM)
06-01-2021,24:00,14.493,R,ugm-3 (Ref.eq),6.90432,R,ugm-3,22.70575,R,ugm-3,33.29222,R,ugm-3,13.000,R,ugm-3 (BAM)
07-01-2021,01:00,14.493,R,ugm-3 (Ref.eq),6.10535,R,ugm-3,21.92090,R,ugm-3,31.28231,R,ugm-3,12.000,R,ugm-3 (BAM)
07-01-2021,02:00,14.493,R,ugm-3 (Ref.eq),3.99901,R,ugm-3,17.41990,R,ugm-3,23.55163,R,ugm-3,11.000,R,ugm-3 (BAM)
07-01-2021,03:00,10.628,R,ugm-3 (Ref.eq),2.53372,R,ugm-3,14.63270,R,ugm-3,18.51769,R,ugm-3,10.000,R,ugm-3 (BAM)
07-01-2021,04:00,14.493,R,ugm-3 (Ref.eq),2.22846,R,ugm-3,12.49392,R,ugm-3,15.91083,R,ugm-3,14.000,R,ugm-3 (BAM)
07-01-2021,05:00,16.425,R,ugm-3 (Ref.eq),3.14426,R,ugm-3,14.19097,R,ugm-3,19.01209,R,ugm-3,12.000,R,ugm-3 (BAM)
07-01-2021,06:00,21.256,R,ugm-3 (Ref.eq),8.76118,R,ugm-3,26.56818,R,ugm-3,40.00180,R,ugm-3,11.000,R,ugm-3 (BAM)
07-01-2021,07:00,25.121,R,ugm-3 (Ref.eq),22.00980,R,ugm-3,35.78333,R,ugm-3,69.53123,R,ugm-3,18.000,R,ugm-3 (BAM)
07-01-2021,08:00,26.087,R,ugm-3 (Ref.eq),34.15946,R,ugm-3,41.60467,R,ugm-3,93.98177,R,ugm-3,21.000,R,ugm-3 (BAM)
07-01-2021,09:00,30.918,R,ugm-3 (Ref.eq),48.84283,R,ugm-3,47.27151,R,ugm-3,122.16281,R,ugm-3,18.000,R,ugm-3 (BAM)
07-01-2021,10:00,19.324,R,ugm-3 (Ref.eq),38.40268,R,ugm-3,47.90805,R,ugm-3,106.79133,R,ugm-3,20.000,R,ugm-3 (BAM)
07-01-2021,11:00,26.087,R,ugm-3 (Ref.eq),48.01861,R,ugm-3,47.72628,R,ugm-3,121.35379,R,ugm-3,,,
07-01-2021,12:00,26.087,R,ugm-3 (Ref.eq),48.26283,R,ugm-3,49.41933,R,ugm-3,123.42130,R,ugm-3,,,
07-01-2021,13:00,28.986,R,ugm-3 (Ref.eq),44.11119,R,ugm-3,42.93058,R,ugm-3,110.56679,R,ugm-3,20.000,R,ugm-3 (BAM)
07-01-2021,14:00,24.155,R,ugm-3 (Ref.eq),52.81131,R,ugm-3,50.08587,R,ugm-3,131.06209,R,ugm-3,22.000,R,ugm-3 (BAM)
07-01-2021,15:00,28.020,R,ugm-3 (Ref.eq),45.24068,R,ugm-3,51.71605,R,ugm-3,121.08411,R,ugm-3,21.000,R,ugm-3 (BAM)
07-01-2021,16:00,34.783,R,ugm-3 (Ref.eq),62.51883,R,ugm-3,56.82018,R,ugm-3,152.68105,R,ugm-3,23.000,R,ugm-3 (BAM)
07-01-2021,17:00,29.952,R,ugm-3 (Ref.eq),59.03878,R,ugm-3,54.11088,R,ugm-3,144.63574,R,ugm-3,31.000,R,ugm-3 (BAM)
07-01-2021,18:00,38.648,R,ugm-3 (Ref.eq),47.77440,R,ugm-3,51.74135,R,ugm-3,124.99440,R,ugm-3,30.000,R,ugm-3 (BAM)
07-01-2021,19:00,38.648,R,ugm-3 (Ref.eq),32.17522,R,ugm-3,48.96192,R,ugm-3,98.29657,R,ugm-3,29.000,R,ugm-3 (BAM)
07-01-2021,20:00,38.648,R,ugm-3 (Ref.eq),32.78575,R,ugm-3,48.83481,R,ugm-3,99.10559,R,ugm-3,31.000,R,ugm-3 (BAM)
07-01-2021,21:00,37.682,R,ugm-3 (Ref.eq),30.28256,R,ugm-3,46.60530,R,ugm-3,93.03790,R,ugm-3,28.000,R,ugm-3 (BAM)
07-01-2021,22:00,31.885,R,ugm-3 (Ref.eq),18.86555,R,ugm-3,45.05410,R,ugm-3,73.98087,R,ugm-3,28.000,R,ugm-3 (BAM)
07-01-2021,23:00,26.087,R,ugm-3 (Ref.eq),14.10337,R,ugm-3,40.98470,R,ugm-3,62.60957,R,ugm-3,27.000,R,ugm-3 (BAM)
07-01-2021,24:00,27.054,R,ugm-3 (Ref.eq),16.14866,R,ugm-3,38.65766,R,ugm-3,63.41859,R,ugm-3,25.000,R,ugm-3 (BAM)
08-01-2021,01:00,25.121,R,ugm-3 (Ref.eq),4.92123,R,ugm-3,30.05234,R,ugm-3,37.59811,R,ugm-3,17.000,R,ugm-3 (BAM)
08-01-2021,02:00,17.392,R,ugm-3 (Ref.eq),9.51708,R,ugm-3,42.38824,R,ugm-3,56.98090,R,ugm-3,14.000,R,ugm-3 (BAM)
08-01-2021,03:00,21.256,R,ugm-3 (Ref.eq),4.66703,R,ugm-3,24.81436,R,ugm-3,31.97037,R,ugm-3,14.000,R,ugm-3 (BAM)
08-01-2021,04:00,14.493,R,ugm-3 (Ref.eq),4.23998,R,ugm-3,20.93403,R,ugm-3,27.43525,R,ugm-3,16.000,R,ugm-3 (BAM)
08-01-2021,05:00,20.290,R,ugm-3 (Ref.eq),4.72804,R,ugm-3,22.74512,R,ugm-3,29.99467,R,ugm-3,16.000,R,ugm-3 (BAM)
08-01-2021,06:00,22.223,R,ugm-3 (Ref.eq),19.09517,R,ugm-3,27.34282,R,ugm-3,56.62168,R,ugm-3,22.000,R,ugm-3 (BAM)
08-01-2021,07:00,22.223,R,ugm-3 (Ref.eq),22.02351,R,ugm-3,30.80047,R,ugm-3,64.56937,R,ugm-3,18.000,R,ugm-3 (BAM)
08-01-2021,08:00,24.155,R,ugm-3 (Ref.eq),20.16279,R,ugm-3,30.10624,R,ugm-3,61.02210,R,ugm-3,16.000,R,ugm-3 (BAM)
08-01-2021,09:00,30.918,R,ugm-3 (Ref.eq),54.50970,R,ugm-3,42.46011,R,ugm-3,126.04049,R,ugm-3,22.000,R,ugm-3 (BAM)
08-01-2021,10:00,25.121,R,ugm-3 (Ref.eq),25.74493,R,ugm-3,35.69128,R,ugm-3,75.16629,R,ugm-3,21.000,R,ugm-3 (BAM)
08-01-2021,11:00,19.324,R,ugm-3 (Ref.eq),18.08856,R,ugm-3,28.66177,R,ugm-3,56.39717,R,ugm-3,13.000,R,ugm-3 (BAM)
08-01-2021,12:00,19.324,R,ugm-3 (Ref.eq),14.12311,R,ugm-3,28.41083,R,ugm-3,50.06596,R,ugm-3,18.000,R,ugm-3 (BAM)
08-01-2021,13:00,25.121,R,ugm-3 (Ref.eq),23.42667,R,ugm-3,41.26650,R,ugm-3,77.18689,R,ugm-3,19.000,R,ugm-3 (BAM)
08-01-2021,14:00,23.189,R,ugm-3 (Ref.eq),33.49281,R,ugm-3,43.07441,R,ugm-3,94.42933,R,ugm-3,21.000,R,ugm-3 (BAM)
08-01-2021,15:00,22.223,R,ugm-3 (Ref.eq),31.02203,R,ugm-3,46.99759,R,ugm-3,94.56404,R,ugm-3,26.000,R,ugm-3 (BAM)
08-01-2021,16:00,25.121,R,ugm-3 (Ref.eq),42.94889,R,ugm-3,46.94030,R,ugm-3,112.79434,R,ugm-3,22.000,R,ugm-3 (BAM)
08-01-2021,17:00,20.290,R,ugm-3 (Ref.eq),28.36823,R,ugm-3,42.04136,R,ugm-3,85.53870,R,ugm-3,21.000,R,ugm-3 (BAM)
08-01-2021,18:00,24.155,R,ugm-3 (Ref.eq),30.10693,R,ugm-3,51.99291,R,ugm-3,98.15622,R,ugm-3,20.000,R,ugm-3 (BAM)
08-01-2021,19:00,28.986,R,ugm-3 (Ref.eq),29.37484,R,ugm-3,45.57185,R,ugm-3,90.61265,R,ugm-3,26.000,R,ugm-3 (BAM)
08-01-2021,20:00,28.986,R,ugm-3 (Ref.eq),29.06981,R,ugm-3,41.10032,R,ugm-3,85.67341,R,ugm-3,25.000,R,ugm-3 (BAM)
08-01-2021,21:00,31.885,R,ugm-3 (Ref.eq),20.92538,R,ugm-3,37.10916,R,ugm-3,69.19430,R,ugm-3,32.000,R,ugm-3 (BAM)
08-01-2021,22:00,28.020,R,ugm-3 (Ref.eq),17.35647,R,ugm-3,32.74782,R,ugm-3,59.36071,R,ugm-3,29.000,R,ugm-3 (BAM)
08-01-2021,23:00,30.918,R,ugm-3 (Ref.eq),13.29951,R,ugm-3,32.23308,R,ugm-3,52.62538,R,ugm-3,29.000,R,ugm-3 (BAM)
08-01-2021,24:00,25.121,R,ugm-3 (Ref.eq),3.69092,R,ugm-3,20.20434,R,ugm-3,25.86367,R,ugm-3,21.000,R,ugm-3 (BAM)
09-01-2021,01:00,19.324,R,ugm-3 (Ref.eq),2.88546,R,ugm-3,17.10780,R,ugm-3,21.53211,R,ugm-3,16.000,R,ugm-3 (BAM)
09-01-2021,02:00,17.392,R,ugm-3 (Ref.eq),1.55449,R,ugm-3,11.43292,R,ugm-3,13.81644,R,ugm-3,16.000,R,ugm-3 (BAM)
09-01-2021,03:00,11.594,R,ugm-3 (Ref.eq),1.64593,R,ugm-3,12.05531,R,ugm-3,14.57903,R,ugm-3,11.000,R,ugm-3 (BAM)
09-01-2021,04:00,9.662,R,ugm-3 (Ref.eq),1.61545,R,ugm-3,9.58997,R,ugm-3,12.06695,R,ugm-3,7.000,R,ugm-3 (BAM)
09-01-2021,05:00,9.662,R,ugm-3 (Ref.eq),3.23090,R,ugm-3,15.90526,R,ugm-3,20.85923,R,ugm-3,11.000,R,ugm-3 (BAM)
09-01-2021,06:00,13.527,R,ugm-3 (Ref.eq),4.11482,R,ugm-3,16.52370,R,ugm-3,22.83301,R,ugm-3,12.000,R,ugm-3 (BAM)
09-01-2021,07:00,10.628,R,ugm-3 (Ref.eq),4.96827,R,ugm-3,18.22063,R,ugm-3,25.83853,R,ugm-3,9.000,R,ugm-3 (BAM)
09-01-2021,08:00,11.594,R,ugm-3 (Ref.eq),9.93653,R,ugm-3,24.86775,R,ugm-3,40.10355,R,ugm-3,9.000,R,ugm-3 (BAM)
09-01-2021,09:00,9.662,R,ugm-3 (Ref.eq),13.95992,R,ugm-3,30.45159,R,ugm-3,51.85650,R,ugm-3,10.000,R,ugm-3 (BAM)
09-01-2021,10:00,13.527,R,ugm-3 (Ref.eq),19.08059,R,ugm-3,33.72493,R,ugm-3,62.98142,R,ugm-3,10.000,R,ugm-3 (BAM)
09-01-2021,11:00,15.459,R,ugm-3 (Ref.eq),26.63967,R,ugm-3,37.43127,R,ugm-3,78.27819,R,ugm-3,12.000,R,ugm-3 (BAM)
09-01-2021,12:00,20.290,R,ugm-3 (Ref.eq),43.70856,R,ugm-3,41.80801,R,ugm-3,108.82687,R,ugm-3,19.000,R,ugm-3 (BAM)
09-01-2021,13:00,22.223,R,ugm-3 (Ref.eq),47.67098,R,ugm-3,45.60126,R,ugm-3,118.69575,R,ugm-3,19.000,R,ugm-3 (BAM)
09-01-2021,14:00,22.223,R,ugm-3 (Ref.eq),36.27140,R,ugm-3,41.99686,R,ugm-3,97.61223,R,ugm-3,17.000,R,ugm-3 (BAM)
09-01-2021,15:00,23.189,R,ugm-3 (Ref.eq),21.94572,R,ugm-3,38.48293,R,ugm-3,72.13256,R,ugm-3,16.000,R,ugm-3 (BAM)
09-01-2021,16:00,30.918,R,ugm-3 (Ref.eq),60.92986,R,ugm-3,54.69849,R,ugm-3,148.12296,R,ugm-3,25.000,R,ugm-3 (BAM)
09-01-2021,17:00,30.918,R,ugm-3 (Ref.eq),42.18455,R,ugm-3,47.50918,R,ugm-3,112.19126,R,ugm-3,26.000,R,ugm-3 (BAM)
09-01-2021,18:00,44.445,R,ugm-3 (Ref.eq),45.99457,R,ugm-3,45.61478,R,ugm-3,116.13881,R,ugm-3,41.000,R,ugm-3 (BAM)
09-01-2021,19:00,47.344,R,ugm-3 (Ref.eq),51.60292,R,ugm-3,47.87120,R,ugm-3,126.99458,R,ugm-3,38.000,R,ugm-3 (BAM)
09-01-2021,20:00,41.547,R,ugm-3 (Ref.eq),57.79040,R,ugm-3,48.43219,R,ugm-3,137.04290,R,ugm-3,38.000,R,ugm-3 (BAM)
09-01-2021,21:00,40.580,R,ugm-3 (Ref.eq),48.34155,R,ugm-3,49.28323,R,ugm-3,123.40590,R,ugm-3,33.000,R,ugm-3 (BAM)